Weather in Ely

United Kingdom     52°24′03″N   0°15′54″E
temp.,
°C
wind,
m/s
gust,
m/s
humid.,
%
clouds,
%
prec.,
mm/h
press.,
hPa
HPBL,
m
13 april, tue
tue1301:000s337911 0.0 103235
04:00−1sw34740 0.0 103260
07:000wnw24720 0.0 103390
10:00+6w22484 0.0 1033542
13:00+9nw23395 0.0 10331514
16:00+10nw334777 0.0 10321612
19:00+8nnw226738 0.0 103229
22:00+3ese33735 0.0 103344
14 april, wed
wed1401:00+2sse227698 0.0 103325
04:00+2ene227099 0.0 103332
07:00+4e226562 0.0 103397
10:00+7nne34605 0.0 1034998
13:00+9nne664963 0.0 10341841
16:00+9nne675417 0.0 10331624
19:00+6nne47630 0.0 1034424
22:00+2ne33834 0.0 103550
15 april, thu
thu1501:00+1nne22865 0.0 103523
04:000nnw22905 0.0 103425
07:00+1nnw35885 0.0 1034113
10:00+7nne6764100 0.1 10341430
13:00+8nne7864100 0.9 10331365
16:00+9ne565070 0.4 10321758
19:00+6ne58675 0.6 1032370
22:00+2ne378766 0.0 1033127
16 april, fri
fri1601:00+1ne358699 0.0 103375
04:000ne34845 0.0 103355
07:00+1ne36831 0.0 1033129
10:00+8ene46575 0.0 10331254
13:00+10ene454798 0.0 10321862
16:00+10nne665290 0.0 10321557
19:00+7ne476515 0.0 1032375
22:00+2nne35875 0.0 103272
17 april, sat
sat1701:00+2nne33930 0.0 103239
04:00+1nne22930 0.0 103120
07:00+2nnw22920 0.0 103052
10:00+8ne34617 0.0 1030837
13:00+11ne234999 0.0 10281505
16:00+12nne3349100 0.0 10271482
19:00+9nne3671100 0.0 1026162
22:00+5ese3481100 0.0 102761